Tracking 29892 objects as of 21-Nov-2024
HD Live streaming from Space Station
objects crossing your sky now

NOAA 16 DEB

Track NOAA 16 DEB now!
10-day predictions


NORAD ID: 41514
Int'l Code: 2000-055MN
Perigee: 715.6 km
Apogee: 759.6 km
Inclination: 98.9 °
Period: 99.4 minutes
Semi major axis: 7108 km
RCS: Unknown
Launch date: September 21, 2000
Source: United States (US)
Launch site: AIR FORCE WESTERN TEST RANGE (AFWTR)

Note: This is SATELLITE DEBRIS
Your satellite tracking list
Your tracking list is empty




NASA's NSSDC Master Catalog

Two Line Element Set (TLE):
1 41514U 00055MN  24325.63687716  .00026630  00000-0  70337-2 0  9994
2 41514  98.9049 114.9256 0030963 310.7025  49.1478 14.48539156446949
Source of the keplerian elements: AFSPC